Location: Koszewko
(53.2876°N, 14.9061°E)
Time: 22:55:45
(UTC+00:00)

SL-16 R/B - Pass Details

Date: 03 March 2021
Orbit: 842 x 846 km, 71.0° (Epoch: 12 April)

Event Time Altitude Azimuth Distance (km) Brightness Sun altitude
Rises 19:33:45 0° 249° (WSW) 3,400 6.0 -25.8°
Reaches altitude 10° 19:36:30 10° 260° (W) 2,468 5.3 -26.1°
Maximum altitude 19:41:27 30° 321° (NW) 1,479 4.0 -26.8°
Drops below altitude 10° 19:46:25 10° 22° (NNE) 2,480 4.7 -27.4°
Sets 19:49:12 0° 33° (NNE) 3,419 5.3 -27.8°
